Theta_e
331 330 332 325 325 323 320 319 304 309 307 295 295 296 292 301 301 300 300 303 299 303 305 306 304 305 303 301 303 304 305 302 304 298 299 319 329 339 337 337 337 341 344 348 350 350 351 350 354 354 354 353 353 352 352 351 351 351 350 350 349 349 348 348 348 347 347 346 347 347 347 348 348 348 348 348 348 348 348 347 346 347 347 346 345 346 346 345 344 343 342 341 339 337 336 336 334
326 322 323 324 324 325 316 316 307 300 301 292 293 295 296 300 300 298 298 300 301 303 304 304 304 304 306 305 304 305 305 307 309 309 318 326 329 331 337 337 340 342 343 348 349 350 350 351 350 354 354 353 352 351 351 351 350 351 350 350 349 348 348 347 347 347 346 346 347 347 346 347 347 347 347 348 348 347 347 346 346 346 345 346 345 346 345 344 344 343 341 340 338 337 335 334 334
323 321 324 322 321 319 316 314 301 298 295 289 292 294 298 297 296 298 300 301 303 305 305 305 306 306 305 305 304 304 299 310 313 317 317 327 324 324 333 338 337 344 345 348 348 348 349 349 347 353 353 353 352 351 351 350 350 349 350 349 349 348 348 347 347 347 346 346 346 346 345 345 346 346 347 347 347 347 346 347 346 345 345 345 346 346 345 345 343 342 341 339 337 334 333 332 332
328 326 324 319 316 319 311 307 303 298 295 292 291 299 298 297 297 299 301 303 302 304 306 305 302 306 304 303 304 307 306 308 314 316 315 322 325 328 332 337 334 339 343 346 346 347 348 347 348 353 352 352 352 351 351 350 350 349 349 349 348 347 347 347 347 346 345 346 346 345 345 345 346 346 346 346 347 348 347 345 344 344 344 344 344 345 344 344 343 342 339 337 335 333 331 330 331
325 328 326 320 319 313 310 307 299 298 293 295 291 297 298 299 299 300 302 303 303 303 304 305 302 305 307 305 307 302 301 313 317 322 324 328 332 333 337 338 336 340 342 344 344 346 349 346 348 352 353 353 352 349 351 349 349 349 349 349 348 347 346 346 347 346 345 345 345 345 345 345 346 346 346 346 347 347 345 345 344 344 343 343 342 342 343 343 341 339 337 336 334 332 329 328 330
327 324 329 323 313 316 308 298 299 295 298 301 294 296 299 300 300 301 302 303 304 303 304 304 302 303 303 305 308 303 311 303 315 324 326 328 333 337 336 334 334 337 341 344 343 348 349 344 347 352 353 352 352 351 351 350 349 349 349 348 347 347 347 347 346 346 345 346 345 345 345 346 346 346 346 346 346 345 345 344 343 341 341 341 342 342 343 343 342 339 336 334 333 331 329 328 330
321 317 322 322 318 316 306 300 296 296 297 300 297 297 299 300 301 301 301 302 303 303 305 303 304 304 300 306 310 313 318 318 316 325 330 332 335 337 339 335 337 336 341 343 345 350 348 345 351 353 352 352 351 350 350 350 348 349 348 348 347 347 347 346 346 346 345 345 346 346 346 346 346 346 346 346 345 344 344 343 342 341 340 339 341 341 342 342 341 340 337 334 332 330 328 328 330
327 318 317 308 308 304 301 299 297 297 297 301 301 300 301 302 303 304 301 302 300 300 303 307 304 302 298 305 303 315 322 326 326 330 331 331 334 336 338 339 333 334 339 344 349 347 345 344 349 351 352 352 351 350 351 350 349 348 349 348 347 347 347 346 347 345 345 344 346 346 345 346 346 346 345 346 345 344 343 342 341 340 340 340 341 340 340 340 339 338 335 333 330 328 327 327 329
322 317 320 312 304 304 298 296 296 299 299 300 301 304 308 303 304 302 300 301 301 303 303 303 302 299 299 305 304 312 319 322 325 329 332 332 332 334 335 337 339 339 341 344 347 347 346 341 347 350 351 351 351 351 350 350 350 349 348 348 348 347 347 346 347 346 345 344 346 346 346 345 345 345 346 345 345 343 342 341 341 341 341 340 340 339 339 338 337 336 334 332 329 326 326 327 328
314 311 305 306 306 299 300 296 295 298 298 301 300 301 302 303 302 303 302 301 301 303 302 305 303 300 302 303 305 307 309 318 321 323 331 332 333 332 333 335 337 340 340 342 347 348 345 343 341 346 348 351 351 350 350 349 350 349 348 348 348 347 346 347 347 346 345 345 346 346 345 344 343 344 345 346 344 343 343 342 341 340 340 340 339 338 337 336 335 334 333 331 328 325 324 324 326
309 312 312 304 299 297 297 295 296 299 298 300 301 303 303 302 304 303 302 302 304 302 302 304 303 300 301 304 304 312 310 314 316 317 324 333 333 332 331 334 335 337 339 340 342 345 344 343 339 340 344 346 349 350 349 348 349 348 348 348 349 348 347 346 347 346 345 345 345 345 345 344 344 344 342 342 342 342 342 341 340 340 339 338 338 337 336 335 334 334 332 330 327 325 322 322 324
307 305 309 301 298 296 294 296 297 297 300 299 299 302 302 303 304 301 301 301 302 302 301 304 301 304 300 302 305 305 307 308 312 319 324 328 331 333 333 332 335 335 337 337 338 339 345 343 342 339 337 341 342 347 347 347 347 348 348 348 347 348 348 347 347 347 346 345 346 346 345 344 344 343 342 342 342 341 341 340 340 340 338 337 337 336 335 334 333 332 331 329 326 324 320 319 322
311 308 301 298 297 295 294 295 297 297 297 298 299 301 302 302 301 302 302 301 301 302 301 304 305 305 300 302 305 307 306 307 309 317 324 325 328 334 334 333 333 334 336 335 336 336 338 344 343 343 341 334 336 340 342 344 345 346 347 347 346 348 347 348 348 348 347 347 346 345 345 345 343 340 342 341 341 341 340 339 339 338 337 336 336 334 334 334 333 332 330 328 326 323 320 317 320
313 307 305 300 300 296 295 297 295 294 295 298 300 302 304 303 302 302 301 300 302 300 304 306 306 303 302 302 303 303 304 308 309 316 322 327 328 328 333 332 331 331 332 334 333 334 334 336 344 344 343 341 344 339 334 338 341 344 344 345 344 345 346 347 347 346 347 346 344 343 342 342 341 340 339 337 339 340 340 340 339 338 337 336 335 335 334 333 332 331 329 328 325 322 318 316 317
312 308 305 302 295 296 297 294 296 294 294 299 304 302 302 303 304 303 302 300 301 306 306 307 308 304 297 300 301 305 305 308 310 317 322 326 328 329 330 331 331 330 329 332 332 332 333 334 336 342 344 344 343 344 346 339 335 338 341 341 341 343 344 343 343 343 340 339 339 338 337 336 335 335 334 335 337 336 336 334 337 338 337 336 334 334 334 333 331 330 329 327 324 321 318 316 314
314 307 306 300 295 294 297 297 298 294 295 299 303 303 303 303 306 303 303 303 304 309 305 301 305 303 303 303 303 306 307 310 311 317 317 324 325 326 329 328 329 328 328 330 332 333 334 333 334 335 339 344 343 343 342 344 333 333 337 338 338 339 340 340 340 339 332 331 332 331 328 329 329 331 328 332 331 334 332 332 334 338 338 336 334 334 334 333 331 329 329 327 324 321 318 316 314
313 311 300 296 296 294 296 298 296 292 297 299 303 303 301 300 305 304 306 306 302 303 304 305 304 308 304 304 306 308 309 312 313 316 318 317 320 318 316 320 321 324 328 326 329 330 330 333 333 334 336 338 340 341 341 345 338 331 332 332 331 334 335 336 336 327 322 321 324 324 324 336 335 332 331 335 325 332 326 326 332 336 337 337 335 334 334 333 331 329 328 327 324 319 317 316 316
313 306 300 296 295 293 297 297 298 300 298 298 301 302 301 302 303 303 305 302 302 303 303 305 306 305 306 307 309 309 309 310 311 311 311 311 310 310 310 310 311 313 314 317 317 320 326 333 332 333 334 336 338 341 343 346 340 336 341 339 335 333 331 328 332 338 332 335 325 327 335 337 338 336 335 331 333 331 327 323 327 332 336 335 334 335 334 332 330 329 328 327 326 320 318 307 306
308 300 298 295 296 298 299 299 300 298 299 301 302 302 301 300 301 303 299 299 301 300 302 304 303 305 306 306 306 307 308 309 310 310 309 309 308 309 309 311 311 311 312 313 315 317 317 319 327 331 332 335 337 337 341 341 343 342 343 342 340 334 335 334 339 339 339 340 338 338 336 337 337 338 337 333 333 325 328 322 326 329 333 332 332 334 333 332 331 329 329 326 326 326 314 314 309
306 301 297 296 300 298 300 301 300 302 303 301 302 302 300 301 302 304 301 298 300 299 300 301 302 303 304 304 306 306 307 308 308 309 309 309 309 308 308 309 309 311 311 313 315 318 317 317 318 321 331 332 334 336 338 337 339 343 341 341 340 340 339 338 338 338 338 337 340 339 338 337 336 337 330 327 327 329 326 322 323 325 326 327 326 329 330 331 331 331 328 328 323 319 317 316 314
306 302 298 300 299 299 300 301 302 302 301 301 302 302 300 302 303 303 300 297 299 301 301 301 301 302 303 304 305 305 306 306 306 307 308 308 309 309 308 309 308 310 311 313 314 316 316 316 318 319 323 331 332 335 334 334 336 336 337 339 340 338 339 340 338 338 338 337 336 336 336 336 337 336 334 332 331 332 331 328 325 328 329 328 325 330 330 328 325 321 321 319 318 319 316 316 315
305 299 301 302 301 299 302 303 302 302 302 300 301 299 301 303 303 301 300 296 296 300 301 302 302 302 302 302 304 305 305 305 305 305 306 306 307 308 308 308 310 311 311 311 312 314 314 316 316 318 319 324 331 333 335 333 336 334 336 337 339 339 337 337 337 336 335 338 335 336 334 335 336 335 334 333 334 333 331 329 328 331 330 329 328 331 329 328 324 322 320 320 318 318 315 315 313
297 301 301 301 301 300 303 303 302 301 302 301 300 302 303 301 301 302 301 300 301 302 303 302 302 303 303 304 304 303 304 303 304 304 305 305 306 308 308 308 308 308 309 311 312 313 315 315 316 318 318 319 330 333 334 333 333 334 336 335 336 337 337 336 336 335 336 336 336 335 333 331 329 331 332 332 333 333 332 331 332 332 330 330 329 330 330 327 325 322 320 320 318 316 316 315 314
301 297 301 301 302 301 304 302 301 300 302 301 303 303 300 300 297 302 301 302 302 302 303 302 303 303 304 302 303 302 303 303 303 305 306 305 306 307 308 307 308 308 309 311 312 314 314 315 316 318 317 318 326 331 332 331 333 334 335 333 332 330 335 335 334 334 333 332 331 332 331 332 331 331 332 332 332 333 332 332 331 328 328 329 329 329 327 325 324 322 321 319 319 317 317 316 315
300 299 301 301 302 302 303 301 301 301 301 302 302 300 299 300 300 300 301 301 302 302 303 303 303 302 302 302 301 302 302 303 303 305 307 305 306 308 307 307 308 309 309 311 312 313 314 314 315 319 319 322 325 329 330 331 332 331 331 329 328 326 329 329 329 328 327 327 328 329 329 330 331 331 331 332 332 330 330 330 329 328 328 327 326 325 326 324 323 323 321 319 318 316 315 315 315
301 301 302 303 302 303 301 302 301 301 302 302 300 299 301 302 302 299 301 301 302 302 302 302 302 301 301 301 301 301 301 301 303 303 304 305 305 305 304 305 306 308 310 309 309 310 312 314 318 322 323 326 328 328 328 327 327 326 326 325 325 325 325 325 325 324 323 324 324 325 326 327 328 327 327 327 328 327 325 323 323 322 323 323 324 323 323 324 322 322 321 320 317 315 316 314 315
301 300 300 300 301 301 302 301 302 302 301 301 298 298 300 300 300 294 300 301 302 301 301 302 301 300 301 301 301 301 301 301 301 302 303 303 303 302 303 304 304 307 308 307 308 309 311 315 319 319 322 326 325 324 323 322 322 323 322 322 322 322 322 322 320 319 319 319 320 323 324 324 324 324 324 324 323 322 321 320 320 320 319 320 323 323 323 322 322 321 320 317 317 316 314 314 314
302 300 299 300 301 301 301 301 301 302 300 301 300 299 300 299 300 296 299 301 302 301 300 300 301 300 299 301 300 301 300 301 300 301 300 300 300 301 302 303 303 305 306 306 307 309 312 315 316 316 316 323 322 320 320 319 317 317 317 317 316 316 317 317 316 315 314 314 315 316 320 322 321 321 321 321 321 320 319 319 319 319 318 319 321 322 322 322 321 319 318 316 316 315 315 314 313
301 300 296 300 301 301 302 300 301 301 300 300 301 297 295 296 295 299 300 301 301 301 300 300 300 300 300 299 299 299 298 299 299 299 300 299 301 302 302 303 303 304 306 306 307 309 310 312 313 312 313 315 316 314 314 314 313 312 311 311 311 312 311 311 310 311 311 311 311 312 313 318 319 318 318 317 316 317 317 316 316 316 318 319 319 321 321 321 320 319 318 319 316 315 315 314 314
302 300 297 297 298 298 303 303 301 299 300 299 299 289 295 296 297 299 300 300 300 300 299 299 299 299 299 299 299 298 298 298 298 298 298 299 301 302 302 303 304 304 304 306 307 308 309 311 312 310 310 311 311 310 309 309 309 308 308 307 307 307 307 307 306 307 307 308 309 309 310 310 313 318 317 316 316 315 314 314 314 314 314 315 314 315 318 316 314 313 312 315 313 312 310 308 308
296 301 299 293 293 293 300 300 299 297 299 299 299 292 293 295 297 299 299 301 300 298 299 299 299 299 299 299 298 297 298 297 297 298 300 300 301 302 302 303 303 303 303 304 305 307 308 308 309 307 308 308 308 308 307 306 306 306 305 305 304 304 303 302 303 304 304 305 306 307 308 308 308 310 316 315 314 314 313 312 312 312 313 313 312 313 316 315 312 310 309 309 310 306 305 304 305
298 295 291 295 292 296 298 301 299 297 297 299 298 292 294 295 296 298 299 300 300 298 299 299 299 299 299 299 298 297 297 298 298 298 300 300 300 301 301 301 303 302 303 304 306 307 307 307 306 305 305 306 305 305 305 304 303 303 303 303 302 303 302 301 301 302 302 303 303 304 305 307 307 308 308 311 310 311 311 311 312 312 311 311 311 311 311 311 310 308 306 305 303 302 302 301 301
298 293 293 293 295 295 295 298 302 302 298 299 297 292 297 294 297 298 300 299 299 298 299 299 299 299 299 298 297 297 297 297 297 297 298 299 300 300 301 301 301 302 303 304 305 306 306 305 304 304 303 304 304 303 303 302 302 301 300 299 299 299 299 299 300 301 300 300 301 302 302 304 306 308 308 307 307 306 306 306 306 307 308 307 307 307 306 306 305 307 303 301 300 298 299 298 298
294 295 292 297 294 296 293 295 299 301 298 294 296 294 295 297 296 298 299 300 299 298 299 299 298 297 298 297 297 297 297 296 295 295 297 299 299 300 301 302 301 302 303 305 305 305 305 304 304 303 303 303 302 301 300 300 300 299 299 298 298 297 297 297 298 298 298 299 299 299 300 300 302 304 305 306 305 305 304 304 304 304 304 304 303 302 302 303 303 302 302 299 298 297 296 296 296
293 294 291 294 296 297 296 294 296 298 298 296 296 294 295 298 297 298 298 299 298 297 297 298 298 297 298 297 296 296 296 295 294 296 298 299 299 300 301 301 301 302 303 304 305 306 306 305 305 305 303 302 301 300 300 299 299 298 298 298 297 297 297 297 297 297 297 298 298 298 298 298 299 301 303 303 303 303 303 302 302 302 301 301 300 300 299 299 299 300 299 299 298 296 295 296 295
297 296 296 295 292 294 294 298 297 298 295 294 295 293 296 298 300 297 297 298 298 297 297 297 297 297 297 296 296 295 295 294 296 297 298 298 299 299 300 301 300 302 303 303 303 304 304 304 305 304 303 302 302 301 300 299 299 298 296 296 296 295 296 296 296 296 296 296 297 297 297 297 298 299 299 300 300 300 300 300 299 299 298 297 296 295 295 295 295 296 298 298 296 294 294 294 293
299 298 297 295 295 296 299 299 297 298 295 294 295 296 296 298 299 299 297 297 296 296 296 296 296 296 296 295 296 295 295 294 296 297 297 298 299 298 299 301 301 302 303 303 303 303 303 303 302 302 303 304 302 301 300 298 296 296 295 295 294 294 294 294 294 294 294 295 295 295 295 295 295 296 297 297 297 297 296 296 295 294 293 293 293 292 292 292 293 294 295 297 295 293 292 292 292
298 297 295 293 296 293 298 298 295 298 295 293 296 295 296 298 300 299 297 296 295 296 296 296 296 296 296 295 295 294 294 295 296 295 297 297 297 298 299 299 300 299 300 302 302 302 302 301 301 301 301 300 299 298 297 296 296 295 294 293 293 293 293 292 292 292 293 293 293 293 293 293 293 293 294 294 294 294 293 292 292 291 291 291 291 292 291 292 291 291 292 292 293 293 291 291 291
299 295 294 293 293 297 299 299 297 297 297 292 295 293 295 297 298 299 296 296 296 297 297 297 296 295 295 295 295 294 294 294 294 294 296 296 297 298 297 298 298 299 300 301 302 302 301 300 299 298 298 298 298 298 297 296 296 296 295 293 292 291 292 292 292 292 292 291 290 291 291 291 291 291 292 292 292 291 291 291 290 290 290 290 289 289 290 290 290 289 289 289 289 289 290 291 290
295 294 291 290 295 294 291 295 296 297 294 293 293 293 295 298 300 300 297 297 295 296 297 296 298 296 295 295 295 294 293 292 292 293 293 295 295 295 297 297 297 299 299 299 300 300 300 299 298 297 297 296 296 296 295 295 295 294 294 293 292 290 289 290 289 289 289 289 289 290 290 290 290 290 290 290 291 290 290 289 289 289 289 289 288 288 288 288 289 289 288 288 288 286 286 287 289
296 295 294 293 295 296 294 295 296 296 296 296 293 291 292 295 295 292 293 295 295 294 295 295 294 296 295 295 295 295 294 293 292 292 292 293 294 294 295 296 297 297 297 297 298 299 299 298 298 297 296 296 296 295 295 294 293 291 291 291 291 290 289 288 287 287 288 288 288 288 289 290 290 290 290 290 290 289 290 289 288 288 288 288 288 288 287 288 288 288 288 287 287 286 285 285 287
293 297 296 296 297 296 297 298 295 291 290 296 293 284 285 294 295 294 292 292 292 293 292 292 293 293 293 292 293 293 295 294 293 292 292 292 292 293 294 295 295 295 295 296 297 298 298 298 298 297 297 297 296 296 295 294 292 291 290 289 287 286 285 285 285 285 285 286 287 288 289 289 289 289 289 289 289 289 289 289 288 288 288 288 288 287 287 287 287 287 288 287 286 287 286 285 284
291 293 299 299 297 296 296 295 293 283 283 292 295 284 282 291 292 293 291 291 291 291 291 292 293 293 292 292 292 292 292 292 292 292 291 292 292 292 293 294 294 294 294 296 296 297 297 297 297 296 295 295 297 295 294 294 292 291 290 289 287 286 286 286 286 286 286 286 287 287 288 288 289 288 288 288 289 289 288 288 288 287 287 287 287 287 287 286 287 287 287 286 286 287 285 283 284
290 296 299 297 296 295 295 294 293 289 294 295 293 291 282 284 291 295 293 292 291 289 291 292 292 292 292 292 292 292 292 291 291 291 291 292 292 292 291 292 293 293 293 294 294 295 295 294 294 293 293 293 293 294 293 292 290 290 289 288 288 287 287 286 287 287 287 287 286 286 287 287 288 288 288 287 287 287 287 287 287 287 287 287 287 286 286 286 287 287 286 286 286 286 285 283 282
294 297 299 296 297 296 296 293 290 290 289 283 288 292 283 283 290 296 294 291 290 290 291 291 291 292 292 292 292 292 292 292 291 290 290 291 291 290 290 290 291 293 293 293 293 292 293 292 292 292 292 292 292 292 292 291 291 290 289 288 288 288 288 288 288 289 287 288 286 286 286 286 286 287 287 287 286 286 286 286 286 286 285 285 286 286 286 286 286 285 285 285 285 285 286 285 284
296 298 298 297 297 295 296 289 288 286 284 281 286 291 283 283 291 292 292 291 292 292 292 292 292 292 291 291 291 291 291 291 291 291 290 289 289 289 290 290 290 290 291 292 292 292 292 292 291 291 291 291 291 291 291 291 290 290 289 288 288 288 288 288 288 287 287 286 286 285 285 285 284 285 285 286 286 286 285 285 285 285 285 285 286 285 286 286 286 286 286 286 285 285 285 285 284
299 298 295 294 293 290 289 289 287 284 282 284 289 292 288 281 287 290 289 291 293 293 292 292 292 292 292 292 291 291 291 291 290 289 289 288 288 288 289 289 289 289 290 290 291 291 291 291 290 290 291 291 291 291 291 291 290 290 289 289 288 288 287 287 287 286 286 285 285 284 284 284 284 284 284 284 285 285 285 285 284 284 285 285 285 285 285 286 285 285 286 285 284 283 283 284 284
297 292 289 290 286 287 286 285 286 280 280 284 290 291 291 281 282 291 292 293 294 294 292 292 292 291 292 291 291 291 290 290 289 288 287 287 287 287 288 287 288 288 289 290 289 290 290 290 290 290 290 290 291 291 291 291 291 290 290 289 289 289 288 288 286 286 285 285 284 284 283 283 283 283 283 283 283 284 284 284 285 284 284 284 284 285 285 285 285 284 284 284 283 283 284 284 283
294 291 289 284 281 281 278 281 277 279 280 282 283 289 287 286 290 291 292 292 293 295 294 293 292 292 292 291 291 291 290 289 288 287 287 286 286 286 286 287 287 287 288 289 289 289 289 289 289 289 289 289 290 290 290 290 290 289 289 289 289 288 288 287 287 286 285 285 284 284 283 282 281 281 282 282 283 283 283 282 283 282 282 283 283 283 283 284 284 284 284 283 282 282 283 282 281
291 289 286 283 280 278 274 278 280 280 281 282 283 286 281 286 291 297 293 292 293 293 294 294 294 292 292 291 291 291 290 289 288 288 287 286 286 286 286 286 287 287 288 288 288 288 288 289 288 288 288 289 289 289 289 289 289 289 289 288 288 288 287 286 286 285 285 285 284 283 282 282 281 281 281 281 282 282 282 282 282 282 282 282 282 282 282 282 282 282 282 281 281 281 281 281 280
291 293 291 286 285 279 276 279 277 278 280 281 283 281 279 281 285 289 290 290 291 292 294 294 293 293 292 291 290 290 289 288 288 288 287 286 287 286 286 286 286 286 287 288 287 287 287 287 288 288 288 288 288 288 289 288 288 288 288 288 287 287 286 286 286 286 285 284 283 283 282 282 281 281 281 282 282 282 282 282 282 282 282 281 281 281 282 281 281 281 281 281 281 281 280 280 279
290 293 294 287 285 287 281 282 281 279 278 277 278 279 283 286 290 289 289 289 290 291 292 293 292 292 290 289 289 288 288 288 288 287 286 286 286 286 286 286 286 286 287 287 287 287 287 287 287 287 288 288 288 288 288 288 288 288 287 286 286 286 286 285 285 285 284 283 283 282 282 281 282 281 282 282 282 281 282 281 281 281 281 281 280 280 279 279 279 279 279 279 278 281 279 278 278
289 291 286 289 293 290 284 281 283 280 280 278 281 281 284 290 289 288 289 288 289 290 290 291 291 291 290 289 288 288 288 288 287 287 287 286 286 286 286 286 286 287 287 287 287 287 287 287 287 287 287 287 288 287 288 287 287 286 286 286 285 285 285 284 283 283 283 283 282 282 281 281 282 282 283 282 281 281 280 280 280 280 280 279 278 278 278 277 277 277 277 277 277 277 277 277 277
291 283 289 294 296 293 286 280 281 279 277 279 281 280 280 282 281 287 286 286 287 288 288 290 291 290 289 289 289 289 289 289 288 288 287 286 286 286 286 286 286 286 287 287 288 288 287 288 287 287 287 287 287 287 287 286 286 286 285 285 284 284 283 283 283 282 282 282 282 282 281 281 281 282 282 282 280 280 279 280 278 278 277 277 277 277 276 276 276 277 276 276 276 276 276 276 277
291 288 296 289 282 282 284 281 275 275 275 277 279 282 282 284 285 284 286 287 288 288 289 289 290 290 290 289 289 289 289 289 288 288 287 287 286 286 286 286 286 286 287 287 288 288 288 287 287 287 287 287 287 287 286 287 286 286 285 284 283 283 283 283 283 283 283 282 281 281 281 281 282 282 281 280 278 278 277 277 277 276 277 276 276 276 276 275 275 275 275 276 275 275 275 274 275
295 295 290 292 285 283 282 283 281 282 277 276 276 281 278 287 288 288 289 290 290 289 288 289 290 291 291 291 290 289 289 289 289 289 288 287 287 286 286 286 286 286 287 287 287 287 287 287 287 287 287 287 287 286 286 286 285 285 284 284 284 283 283 283 282 282 282 281 281 281 281 281 281 280 279 278 277 276 276 276 276 276 275 275 275 275 275 274 274 274 274 275 274 274 274 274 274
285 284 283 286 285 287 285 285 283 280 277 276 276 276 281 288 292 291 292 293 292 290 290 290 291 291 292 292 291 290 290 290 289 289 289 288 286 285 285 285 285 285 286 287 287 287 287 287 287 287 286 286 286 286 285 285 285 284 283 283 283 283 282 282 281 281 280 280 280 281 280 280 280 279 278 277 276 276 276 275 275 275 274 274 274 274 274 274 274 273 273 274 274 274 273 274 274
290 288 286 289 285 282 279 279 287 283 280 277 277 277 283 291 293 293 294 294 293 292 292 291 291 292 292 293 292 291 291 291 290 290 289 288 286 285 284 284 284 285 285 286 287 286 286 286 286 286 286 286 286 285 285 285 284 284 282 282 282 281 281 280 279 279 279 278 278 279 279 279 278 277 276 276 276 275 275 275 274 274 274 274 274 274 273 273 273 273 272 276 275 273 273 273 273
Wind_Speed
10 9 5 3 3 4 3 2 1 2 2 4 3 2 2 2 1 2 5 3 4 3 3 3 4 4 2 1 2 3 10 6 6 3 2 1 1 5 4 3 2 2 3 9 8 6 4 4 9 9 11 12 12 12 12 12 12 11 11 10 10 9 9 9 8 8 8 9 9 8 8 9 9 10 11 12 12 12 13 13 13 13 14 14 13 14 15 15 16 16 16 16 16 15 15 15 14
8 8 7 5 3 1 1 2 1 1 3 5 5 4 2 2 2 7 6 7 3 2 2 3 2 2 3 3 1 2 8 8 8 5 3 5 6 4 3 5 2 5 2 9 8 7 5 4 7 8 11 12 12 12 12 12 11 11 11 10 9 10 9 9 9 7 8 8 8 7 7 8 8 9 10 11 12 12 13 12 12 13 13 13 13 13 14 15 15 16 16 16 16 15 15 14 14
7 7 6 5 3 2 3 1 1 1 4 6 3 1 3 5 6 6 7 6 4 2 1 2 0 0 4 4 0 5 3 11 8 9 4 2 1 4 4 2 3 0 4 9 8 6 6 5 7 9 10 12 12 12 12 12 11 11 11 10 10 9 9 8 8 8 7 7 7 7 6 8 8 8 9 11 11 12 11 14 13 12 13 13 13 14 14 15 15 15 15 14 15 15 15 14 13
5 6 4 3 2 3 1 1 3 3 4 5 4 2 4 5 7 7 6 5 4 1 1 1 1 0 2 7 4 2 7 5 8 3 3 3 2 3 2 1 4 1 3 4 8 7 5 8 7 10 9 11 12 12 12 12 11 10 10 10 9 9 9 8 8 7 6 7 6 6 5 7 8 8 9 9 11 12 13 13 13 12 13 13 13 13 14 15 15 14 14 14 14 14 14 13 12
4 4 4 3 1 1 1 2 3 4 5 3 4 3 5 5 6 7 4 4 3 3 3 1 1 2 1 5 4 2 2 3 10 9 2 2 3 2 1 0 2 3 3 2 9 7 8 13 9 10 10 11 11 10 12 10 10 11 10 9 9 9 8 8 7 7 6 5 5 5 6 6 7 8 9 10 10 12 12 13 13 14 14 14 13 13 13 14 14 13 13 14 14 14 13 12 12
6 4 4 1 1 0 1 2 2 6 3 1 4 4 6 5 6 6 5 5 3 3 1 1 2 0 2 4 4 2 5 2 2 5 3 2 2 3 3 3 3 4 3 3 5 7 8 12 12 10 11 11 11 12 11 11 11 12 10 10 10 9 9 8 7 6 6 4 4 4 4 6 6 8 9 10 11 11 12 13 13 13 13 13 13 13 13 14 13 13 14 14 14 14 13 12 12
3 4 1 1 2 1 2 2 5 4 4 4 4 4 6 5 3 5 6 4 3 4 1 2 3 2 3 2 6 5 6 3 4 1 3 1 2 2 5 1 1 5 4 2 6 9 10 11 9 10 9 8 10 11 11 10 9 10 10 10 9 9 9 8 7 6 5 4 4 3 4 5 6 8 9 10 11 11 12 13 13 13 12 12 13 13 14 14 14 14 14 14 14 14 13 12 12
2 1 0 0 2 1 3 3 6 3 2 6 5 7 5 4 0 0 3 1 2 2 2 0 2 3 2 4 5 2 5 7 5 3 4 3 3 4 6 6 5 4 3 6 9 7 9 12 10 9 10 9 9 10 11 11 11 9 10 9 9 9 9 8 7 5 5 4 4 3 4 6 7 8 9 11 11 12 12 13 12 13 12 13 13 14 14 14 14 15 15 14 14 13 13 12 12
2 2 0 1 2 0 2 6 4 4 4 4 5 6 5 3 3 3 5 2 4 2 2 4 4 2 2 8 6 3 5 7 7 6 5 4 4 5 5 7 6 5 4 8 7 7 6 7 8 8 8 9 8 9 11 13 11 11 10 9 9 8 8 8 7 5 3 4 4 4 4 4 8 9 10 12 12 12 12 13 13 12 12 13 13 13 14 14 14 14 14 14 14 13 12 12 12
2 1 1 1 2 1 0 4 4 3 4 4 5 4 4 2 2 3 2 4 3 1 4 1 3 3 2 10 7 3 3 4 7 6 4 5 4 4 5 6 7 3 4 4 7 6 6 8 9 8 7 8 8 9 9 10 12 11 11 10 9 8 7 7 7 6 3 3 5 4 4 5 4 7 10 12 11 11 12 13 13 12 12 13 13 13 13 13 13 13 14 14 13 13 12 12 12
2 2 1 1 2 2 1 5 5 3 4 4 4 4 3 2 1 1 3 2 2 2 3 2 1 4 4 4 4 3 7 7 8 6 3 5 4 4 4 4 4 6 5 5 5 8 6 5 8 8 8 6 6 7 7 7 10 9 8 8 8 7 7 6 7 6 3 3 4 4 5 6 7 6 5 6 9 11 12 12 12 12 12 13 12 12 12 12 13 13 13 13 13 12 12 11 11
2 0 0 2 2 3 3 4 5 4 4 4 4 3 1 3 0 2 2 1 2 4 4 3 1 2 4 4 2 4 6 10 6 3 4 2 5 4 4 4 4 4 5 2 3 3 6 5 5 6 7 7 7 5 6 6 8 9 8 7 6 7 7 7 7 5 4 4 6 5 6 7 7 7 7 7 7 10 11 12 12 13 13 12 11 12 11 12 12 12 12 12 12 12 11 11 11
0 2 3 2 2 3 1 1 4 4 4 3 4 2 1 2 1 4 3 3 2 1 5 3 0 1 1 3 4 5 10 6 5 4 3 4 4 4 5 4 5 4 3 4 2 4 3 5 5 4 3 6 5 5 5 5 4 6 7 9 7 7 7 6 6 6 6 7 6 6 6 7 8 7 8 8 5 7 11 11 12 12 12 11 11 11 11 11 11 11 11 11 12 12 11 11 10
1 1 0 0 1 1 1 2 3 3 1 3 3 4 1 1 3 4 3 3 4 4 1 1 0 4 2 6 3 3 4 4 4 3 2 1 4 5 6 4 4 4 2 2 3 3 2 1 6 5 7 5 3 3 4 7 7 5 5 6 7 8 8 6 6 6 6 7 7 6 6 7 8 8 9 6 5 5 9 9 11 12 11 10 10 10 10 10 10 10 10 10 11 11 11 11 10
2 3 1 1 1 0 1 0 0 3 3 2 0 2 2 4 2 0 2 3 5 1 3 2 1 0 1 2 1 2 4 4 4 1 0 1 3 4 5 5 4 3 2 5 4 1 2 2 2 5 6 5 5 5 4 6 8 7 7 5 6 7 8 7 7 6 8 8 8 7 7 8 8 9 10 7 5 3 2 9 10 10 10 10 9 9 10 10 9 9 9 9 9 11 11 11 10
1 3 1 1 2 1 0 1 1 2 3 3 1 2 1 4 1 1 2 2 1 0 1 0 1 1 3 5 2 1 2 3 4 0 0 3 1 4 5 5 5 3 3 3 3 5 5 3 3 3 2 6 5 5 5 6 8 9 8 7 7 4 2 7 6 7 9 9 9 9 9 8 8 9 11 7 7 5 2 2 9 9 10 10 8 9 9 9 9 9 8 7 7 8 9 9 9
1 0 1 3 0 1 0 0 1 1 3 3 2 1 1 3 1 2 1 1 2 0 1 2 2 6 5 4 3 1 2 3 6 4 3 1 3 2 3 6 5 4 3 5 4 4 3 6 3 2 3 1 3 5 4 6 8 11 8 8 7 8 6 4 6 7 7 7 7 8 9 7 6 5 7 5 8 8 6 4 6 9 10 9 8 8 9 9 8 7 6 6 5 6 5 7 6
0 0 1 2 3 6 2 5 3 5 4 3 3 3 2 1 1 3 1 2 3 2 2 7 11 8 6 4 3 3 4 5 5 5 6 5 5 3 5 5 5 5 4 4 4 3 2 1 3 4 4 2 3 1 2 5 6 7 6 5 4 5 5 6 5 5 5 5 5 5 4 6 6 6 5 6 6 7 7 8 6 9 11 9 8 8 10 9 7 5 4 3 4 4 3 2 3
0 3 1 2 3 0 3 2 6 2 5 4 3 2 2 1 1 1 2 3 5 4 5 9 9 7 6 6 4 5 5 7 7 7 6 7 6 6 6 5 6 5 6 6 5 5 5 5 3 3 2 5 6 3 0 5 6 5 5 6 6 6 5 5 4 5 4 5 4 4 4 4 6 6 6 7 6 8 7 6 5 7 10 10 9 8 9 8 7 6 5 3 1 1 2 1 2
0 1 2 3 3 3 4 4 4 4 2 3 2 2 1 1 1 1 1 4 4 3 3 7 6 5 5 4 5 5 7 7 7 6 7 7 6 6 5 5 5 5 5 4 5 4 7 6 6 5 4 3 3 5 0 1 5 6 5 4 5 6 5 5 3 3 3 4 6 4 5 4 3 6 7 10 7 5 6 7 6 1 8 10 10 6 7 6 7 6 4 3 1 2 3 6 4
1 0 2 1 2 1 3 3 4 4 4 2 1 2 2 1 0 0 2 4 3 5 4 5 5 5 5 5 4 4 6 6 6 6 7 7 6 6 5 5 5 5 5 4 6 5 6 6 6 7 6 3 3 5 2 1 2 4 4 6 6 4 4 5 4 4 3 2 3 1 2 1 4 4 6 5 5 5 4 3 3 3 3 5 7 4 4 3 3 1 2 1 2 6 4 5 5
1 0 3 2 0 2 3 6 5 4 3 1 1 0 1 3 0 1 4 3 2 1 4 4 5 4 4 3 4 4 5 6 6 6 6 6 6 6 6 5 5 5 5 5 5 5 6 6 6 6 6 6 3 4 4 1 3 2 1 4 4 5 3 4 1 0 3 3 3 5 6 4 3 4 4 5 5 5 6 5 5 4 4 5 3 5 4 4 3 1 3 4 6 4 3 4 4
2 1 3 3 3 1 2 4 3 1 2 1 1 1 2 1 3 3 3 5 3 4 4 5 5 4 4 4 4 5 5 6 6 6 5 6 5 6 6 5 5 5 5 4 4 4 6 5 6 6 5 7 3 3 3 3 1 1 4 4 6 6 5 3 2 3 3 1 1 1 1 1 3 3 2 3 1 1 2 6 5 3 3 5 5 5 4 5 2 6 5 4 5 3 1 1 2
1 1 3 3 2 2 3 3 5 1 1 3 1 2 1 3 5 1 3 8 7 5 4 6 5 4 3 6 4 5 5 5 5 5 4 4 4 6 5 5 4 4 4 5 5 5 5 6 7 6 5 5 3 3 2 2 0 4 6 9 8 6 7 7 7 7 7 7 8 6 6 2 2 4 4 1 2 3 1 4 5 4 3 2 2 3 5 4 6 5 4 4 4 3 1 1 1
2 1 4 3 1 2 0 4 3 3 3 3 2 2 5 4 4 2 2 7 6 5 5 6 5 4 5 4 4 5 5 4 4 4 4 4 4 6 5 6 5 4 6 7 6 7 7 6 9 8 2 5 3 3 2 2 8 8 8 8 8 7 7 6 7 8 8 7 8 8 6 6 5 3 4 4 6 4 6 6 5 4 4 4 3 4 3 5 5 3 5 4 2 3 4 4 2
1 3 1 0 1 3 4 2 3 5 3 3 3 5 6 8 4 2 6 5 6 6 6 5 4 4 4 4 4 4 5 4 4 4 4 4 5 6 7 6 5 6 7 7 7 6 7 8 9 8 10 4 6 4 7 7 7 9 8 8 7 8 7 7 8 8 7 7 7 7 7 7 6 6 6 4 5 6 6 7 6 5 5 3 4 5 4 4 5 5 5 4 3 3 4 3 5
2 3 3 4 4 3 2 5 4 6 4 4 4 4 4 1 3 3 4 6 5 6 5 4 4 4 4 4 4 4 5 5 4 4 5 5 5 6 6 5 6 6 6 7 6 6 6 7 8 10 9 5 7 8 7 8 8 8 7 7 7 7 7 8 8 8 7 7 7 7 7 7 6 6 6 6 6 5 6 6 6 5 5 5 4 5 5 5 5 5 5 4 5 4 3 3 4
2 3 4 6 8 8 5 4 5 2 3 4 4 5 4 3 1 2 7 5 5 6 5 4 4 4 4 5 5 3 5 4 4 5 6 6 5 5 5 5 6 6 6 7 6 6 6 7 8 9 9 7 9 8 8 9 9 7 7 8 8 7 8 8 8 8 8 7 7 7 7 7 7 7 8 7 7 5 7 6 6 6 5 4 4 5 5 5 5 4 4 2 2 3 4 3 3
1 2 3 4 6 6 7 9 7 5 1 1 3 4 6 4 3 5 6 5 4 5 6 5 4 4 4 4 4 4 3 4 4 4 4 4 4 5 6 6 6 6 5 6 7 6 7 7 7 8 8 9 11 9 8 8 8 8 8 9 8 7 8 8 8 8 7 7 7 8 8 7 8 8 8 9 7 7 8 7 7 6 5 5 6 5 5 7 6 4 4 1 5 6 6 6 4
1 4 4 5 5 7 8 8 5 5 2 5 3 2 4 7 5 6 6 6 4 5 5 4 4 4 3 4 5 4 4 4 5 4 3 3 4 4 5 5 6 6 5 5 6 8 6 4 4 5 7 9 11 9 9 8 9 8 8 8 8 8 8 8 8 8 7 7 8 9 9 9 7 6 8 8 7 8 8 8 8 8 6 7 7 7 7 8 7 8 6 5 6 7 7 6 7
1 3 2 3 2 2 2 4 5 4 2 4 1 2 2 6 5 5 5 6 6 5 5 5 5 4 4 4 5 5 5 4 4 4 4 5 4 4 5 6 7 6 5 5 7 7 8 7 5 5 8 9 11 9 11 9 10 9 9 8 9 9 8 8 8 9 9 8 7 9 10 9 10 8 7 7 8 8 8 8 8 7 6 8 8 8 8 7 7 6 6 6 6 7 6 6 6
3 1 3 2 4 0 2 5 8 5 1 3 3 2 5 5 5 5 5 6 5 5 6 5 4 5 5 4 4 5 5 4 5 5 4 5 4 4 5 5 6 6 6 6 6 6 7 7 7 8 9 10 9 10 10 10 10 9 9 8 9 10 9 9 9 9 8 8 9 9 10 10 10 10 9 7 7 7 8 7 5 5 6 7 7 6 6 6 6 7 8 8 7 7 7 7 7
4 5 3 4 3 3 3 3 1 4 4 2 6 3 2 1 4 5 5 7 7 5 6 6 6 5 5 4 4 5 5 4 5 5 4 4 4 4 5 6 5 6 6 6 6 6 7 8 8 9 9 9 10 11 11 12 10 10 11 10 10 9 9 8 8 8 8 9 8 9 9 9 9 8 9 8 8 8 8 7 7 8 7 7 7 7 7 7 7 6 7 8 8 7 8 7 7
4 4 4 3 4 2 2 1 2 1 3 3 5 3 4 0 7 6 6 7 8 6 6 7 5 4 4 4 4 4 4 5 5 3 4 4 4 5 6 5 5 5 6 6 5 6 6 8 8 9 8 8 8 8 10 10 9 9 10 9 9 10 10 8 7 8 9 9 9 9 9 9 9 9 9 7 8 9 8 9 9 10 9 9 9 9 8 7 6 6 5 8 10 9 8 7 8
3 2 4 5 4 5 4 2 5 3 2 2 2 6 5 5 7 8 10 8 7 7 5 7 6 5 5 4 4 4 4 5 4 4 3 3 3 4 5 5 4 4 5 5 5 5 4 7 6 7 8 9 10 10 11 10 10 10 9 9 10 10 9 9 8 9 8 8 9 9 10 9 10 10 10 10 9 8 9 10 10 10 9 9 8 8 8 9 8 6 8 8 9 7 6 6 6
6 4 2 3 3 3 3 2 6 3 4 5 6 6 6 5 5 6 5 8 7 5 3 5 5 5 5 4 4 4 5 5 3 3 3 3 3 4 3 4 3 3 5 5 6 5 6 6 6 8 8 7 7 8 7 7 7 7 9 8 11 10 9 9 9 9 8 9 9 9 9 9 9 10 10 10 10 9 10 10 10 10 9 8 9 10 9 8 9 9 7 8 7 7 8 9 9
3 1 3 5 4 5 4 5 5 1 1 4 5 6 6 7 7 4 9 5 4 5 5 5 4 5 4 4 4 4 4 5 3 4 3 3 4 3 3 3 5 5 6 6 5 5 5 6 6 7 5 5 5 6 6 6 7 8 9 9 10 8 8 8 9 9 9 9 10 10 10 9 10 10 10 9 10 10 10 9 10 9 8 9 9 10 9 10 10 9 8 5 7 7 10 11 12
6 2 3 5 3 5 3 3 4 1 2 1 2 6 10 10 7 4 8 6 7 8 6 4 4 5 4 4 5 4 5 3 4 4 4 4 4 4 4 4 4 6 5 5 5 4 5 6 6 6 6 7 7 7 6 7 6 6 8 7 8 7 8 8 9 9 9 8 10 10 9 9 10 10 10 10 10 10 9 9 9 9 9 9 9 9 10 11 12 11 8 7 5 7 8 10 11
2 1 2 3 4 5 5 3 6 1 0 5 2 5 5 5 6 5 9 8 3 3 3 4 7 5 4 4 4 5 4 4 3 3 4 4 4 4 4 4 4 4 5 4 3 5 6 6 6 6 6 6 6 6 6 8 7 7 8 8 9 10 8 8 8 8 9 10 10 9 9 9 9 10 10 9 9 9 9 9 9 8 9 8 9 11 10 11 10 10 10 8 6 6 5 6 11
3 3 4 6 2 2 3 1 1 3 2 2 4 9 10 11 13 10 2 4 4 5 6 7 4 6 4 5 5 4 4 4 4 4 4 4 4 4 5 4 4 3 5 4 5 5 5 5 6 6 7 6 7 7 9 8 10 11 10 10 10 10 8 8 9 9 9 10 11 9 9 9 9 9 10 10 9 10 9 9 8 8 9 7 8 9 10 10 9 9 9 9 6 7 7 8 8
4 6 6 4 3 5 5 2 2 3 3 5 4 6 7 12 8 2 2 5 5 3 4 3 3 5 5 6 4 3 5 4 4 4 4 4 4 4 4 5 4 5 4 3 3 4 4 6 7 7 7 7 6 8 9 9 10 11 10 9 9 10 8 8 8 9 8 8 9 10 9 9 10 10 9 9 9 9 8 8 8 8 8 8 7 8 8 8 7 7 8 8 9 6 7 6 8
4 6 11 6 5 5 4 5 7 5 5 0 3 3 2 0 7 8 4 1 3 3 4 4 4 3 3 4 4 3 4 4 5 5 4 4 5 4 4 4 5 5 4 2 3 5 5 6 7 8 8 7 8 7 6 7 8 7 7 8 7 8 9 7 9 7 7 8 8 6 8 9 8 9 8 8 8 7 8 8 8 8 8 8 7 7 7 8 9 9 9 7 10 10 5 7 7
3 3 3 4 5 1 2 3 1 3 3 1 0 3 5 3 4 3 3 4 4 3 4 5 6 5 4 4 5 5 4 3 4 5 4 5 5 5 4 4 4 5 3 2 4 5 5 5 6 5 5 4 4 4 5 4 5 6 7 8 7 7 10 6 5 6 7 6 6 8 7 7 8 8 8 7 8 7 7 8 8 8 8 8 7 8 8 8 8 8 8 8 8 7 7 7 8
4 1 2 5 3 3 2 3 5 5 2 2 3 2 4 6 8 5 8 6 6 4 5 5 6 6 6 5 5 5 6 5 5 5 5 4 5 5 5 4 4 5 3 3 4 5 5 5 6 5 4 5 4 6 8 8 8 8 9 8 8 7 7 9 7 6 6 6 8 7 7 7 7 7 7 7 7 7 7 8 7 7 8 7 7 7 7 6 7 7 7 7 6 7 7 7 6
1 1 4 2 2 0 1 3 3 3 0 5 3 2 2 5 6 6 10 5 5 9 9 9 8 6 7 5 6 6 6 6 6 6 5 5 6 5 5 5 5 5 3 4 4 4 5 5 6 5 6 5 6 7 8 8 8 8 8 8 9 7 8 7 7 6 6 5 6 6 6 6 7 7 6 7 7 7 7 7 7 8 8 7 6 6 6 7 7 7 8 8 7 7 7 6 6
1 3 4 3 2 1 1 1 2 3 3 6 5 6 4 6 3 5 4 3 8 9 11 10 9 9 8 7 6 6 5 6 5 5 5 4 4 5 5 5 5 4 4 4 4 4 5 5 6 7 6 6 6 7 9 9 8 8 9 8 10 9 7 7 6 7 6 5 6 6 5 6 6 6 7 6 7 7 7 7 7 8 7 7 7 7 6 7 7 7 7 7 7 7 6 6 6
5 4 4 1 2 1 1 1 0 2 7 9 6 8 7 5 3 8 8 7 5 4 4 5 6 7 7 6 7 6 6 6 6 6 5 5 4 5 5 5 5 4 4 4 4 5 5 5 6 7 6 6 7 7 8 8 7 7 8 7 7 9 8 7 7 7 6 5 7 6 6 6 6 6 6 7 7 7 7 7 7 7 7 7 8 8 7 6 6 7 6 7 8 7 6 6 7
5 2 3 2 0 2 0 1 1 2 7 3 12 12 9 7 6 0 1 3 6 9 9 11 10 10 9 7 8 8 7 6 6 6 6 6 5 4 5 6 5 4 4 4 4 4 5 5 7 8 6 6 6 7 8 7 7 6 6 6 7 6 6 6 7 7 7 6 6 7 6 6 6 6 6 6 7 7 7 7 7 8 8 8 8 6 6 6 5 6 6 6 6 6 6 6 5
3 4 4 7 2 2 2 2 4 7 7 1 2 1 5 11 4 3 4 4 4 3 9 11 11 10 9 8 8 8 7 6 6 6 6 6 6 6 6 6 5 5 5 5 5 4 5 6 7 9 7 6 6 7 8 7 6 5 6 6 6 7 7 7 6 7 5 6 6 7 6 6 6 6 6 6 6 7 6 7 7 7 6 6 6 6 5 6 6 5 6 6 6 7 7 6 6
6 8 8 6 3 3 4 4 3 3 0 3 1 2 1 1 6 9 6 4 4 4 6 9 10 11 10 9 8 8 7 7 6 6 6 6 6 5 5 6 5 5 5 5 5 5 5 6 6 8 7 6 6 7 7 7 7 7 6 7 7 7 7 7 6 7 6 6 6 7 6 6 6 6 5 5 4 5 6 5 5 6 5 5 5 5 5 5 5 5 5 6 5 5 5 5 4
11 5 9 8 7 3 4 5 7 5 3 0 3 3 6 5 6 3 5 4 4 4 5 7 7 7 7 7 6 7 7 6 6 6 6 6 6 6 6 6 5 4 5 5 4 5 5 6 7 8 8 6 6 7 7 7 7 7 7 6 7 6 7 7 7 6 6 7 6 7 6 6 6 5 5 4 4 4 4 5 5 6 5 6 6 6 6 6 5 5 4 4 5 4 4 4 3
5 5 2 3 8 1 3 0 1 1 1 1 1 4 2 5 1 3 4 4 4 3 5 8 9 8 8 7 8 7 7 7 6 6 6 6 6 5 5 5 5 5 5 5 5 5 6 6 7 7 7 7 7 7 6 7 7 7 6 7 7 7 7 7 7 6 6 6 6 7 6 6 6 5 4 4 4 4 4 5 5 5 5 5 5 5 5 4 4 4 4 4 5 4 4 4 4
6 5 9 7 2 2 1 1 0 1 3 6 4 3 6 0 0 2 3 3 2 1 4 6 9 9 8 7 7 7 7 7 7 7 7 7 6 5 5 6 6 6 6 6 6 6 7 8 8 8 7 6 7 6 7 7 8 8 7 7 7 7 7 7 8 7 7 6 6 6 6 6 5 5 4 4 5 4 4 4 4 5 4 4 4 4 4 4 4 4 3 4 4 4 4 4 3
7 5 5 2 2 2 1 2 0 2 4 4 8 8 3 4 6 3 4 5 4 4 4 4 7 9 9 7 8 9 9 8 7 6 6 7 7 7 6 6 6 6 7 7 7 6 7 7 8 9 8 8 6 7 7 7 8 7 7 7 6 7 7 7 7 7 6 7 6 6 5 6 5 4 4 4 4 4 4 5 4 4 4 4 4 4 4 4 4 4 4 4 4 3 3 3 3
1 3 1 7 4 5 4 1 4 2 4 3 4 7 5 11 7 4 6 9 9 8 6 6 7 8 9 7 7 7 6 7 9 9 9 9 9 9 8 7 7 6 7 6 6 7 7 6 6 7 8 7 8 7 6 6 5 5 6 7 7 7 6 6 5 6 5 6 6 6 6 6 5 5 5 5 4 4 4 4 4 4 4 4 4 3 3 3 3 3 3 3 2 3 2 3 3
0 1 2 0 2 1 5 6 1 3 5 1 4 6 6 7 6 14 12 13 12 10 9 11 13 11 9 8 9 9 10 10 10 10 10 10 9 9 9 9 9 9 8 7 7 7 8 7 8 7 7 7 7 7 7 7 6 6 7 6 5 5 5 5 5 5 6 5 6 6 5 6 6 5 5 5 4 4 4 4 4 4 4 3 3 3 3 3 3 3 3 3 3 3 3 4 4
5 1 2 0 1 1 1 2 5 3 2 3 1 3 2 2 2 13 13 12 12 15 14 12 10 9 8 8 10 10 10 10 11 10 10 10 10 9 8 8 7 7 6 6 7 8 7 7 8 8 10 9 8 8 7 6 7 7 8 7 7 6 6 5 6 5 6 5 5 5 5 5 5 5 5 5 4 4 4 4 4 3 4 3 3 3 3 3 3 3 3 2 3 3 3 3 3
10 11 11 11 8 4 4 7 1 2 2 4 2 8 0 1 5 4 9 7 10 11 13 10 8 8 9 8 9 10 10 10 10 9 9 9 9 9 7 7 6 8 8 8 7 7 7 8 8 9 9 8 10 9 8 8 6 7 7 7 6 5 6 6 6 6 6 5 5 5 5 5 5 4 4 4 4 4 4 4 4 4 3 4 3 3 2 3 2 3 3 3 3 4 3 3 3
Wind_Direction
295 282 253 253 269 262 306 211 320 211 201 65 96 42 67 46 265 103 56 155 76 56 27 23 18 16 1 58 304 12 45 38 22 73 136 149 60 60 36 33 4 112 137 117 121 122 117 107 140 143 148 148 145 144 142 140 136 131 129 125 122 117 112 113 109 103 103 92 87 84 88 88 84 87 92 97 101 102 86 80 83 79 77 74 70 67 65 58 54 50 47 44 40 35 31 27 24
291 309 298 253 249 331 269 138 280 250 85 80 79 114 139 160 75 45 59 61 48 73 19 40 28 345 265 273 293 209 51 58 81 89 73 101 126 74 67 8 340 120 133 118 126 133 135 109 125 144 149 147 148 145 144 143 140 135 130 128 125 120 115 117 113 110 103 100 92 92 95 89 90 90 95 98 100 98 95 89 76 75 76 76 76 70 66 59 53 49 43 40 36 30 27 24 23
306 313 308 291 228 197 299 210 291 168 127 92 62 104 251 70 65 62 55 53 63 58 57 122 33 281 324 201 132 46 84 41 61 90 82 150 250 18 30 7 346 160 130 125 138 138 135 128 131 145 151 144 150 149 148 144 144 138 133 130 127 120 119 115 114 110 113 108 103 99 102 100 95 95 97 102 103 93 90 84 81 83 83 78 72 70 65 65 58 50 45 39 35 30 25 23 23
287 278 286 347 316 130 269 196 212 317 77 133 92 55 74 92 82 76 64 58 58 319 278 71 122 219 324 54 13 95 52 53 32 47 107 55 55 324 12 352 285 282 110 134 141 143 133 130 134 141 149 150 148 154 148 146 144 143 134 131 129 125 124 124 116 118 116 112 112 110 102 102 101 101 102 103 99 100 92 91 88 83 74 69 72 70 67 65 60 51 44 39 35 31 27 26 26
269 258 237 300 320 259 331 246 299 58 30 9 110 97 89 96 94 88 74 91 69 29 351 24 130 338 35 44 14 36 314 109 52 35 92 103 350 337 61 316 275 81 127 216 132 147 133 140 133 137 148 150 148 155 143 149 140 147 137 134 132 129 131 126 127 126 121 116 114 116 118 110 112 110 108 106 106 102 96 88 80 71 68 66 65 70 67 65 60 52 44 39 34 30 29 29 29
243 242 208 157 294 128 322 320 60 67 20 295 122 99 80 85 97 108 118 96 111 49 20 340 22 67 60 38 7 67 339 38 65 60 356 44 357 305 147 209 241 127 143 227 131 114 138 141 135 142 148 157 154 156 145 150 155 144 139 139 136 135 131 135 136 134 130 129 119 113 118 115 123 117 114 110 109 102 97 88 80 76 70 72 73 70 70 67 65 56 47 39 33 30 30 31 30
327 350 225 204 270 89 242 305 80 93 359 23 96 103 93 76 112 140 123 111 65 91 303 39 332 354 118 131 85 74 34 340 64 24 40 83 24 356 330 190 192 113 145 169 82 114 129 129 128 133 146 154 152 153 147 148 152 147 140 145 139 139 136 144 144 142 143 141 116 141 135 139 137 127 117 114 112 111 98 89 83 78 76 74 75 74 71 70 64 56 48 40 34 31 32 31 30
247 47 17 354 280 119 265 88 50 61 60 47 37 89 96 100 88 248 100 99 167 145 132 354 83 340 157 197 107 97 76 65 100 77 86 59 34 26 20 344 92 128 132 78 78 95 126 128 122 127 140 149 150 158 149 151 154 152 145 149 144 144 142 148 145 155 150 134 116 98 140 158 142 126 122 117 113 108 101 92 87 87 86 80 80 79 73 68 62 56 49 43 38 34 32 31 31
214 167 116 49 254 115 303 70 105 92 107 88 71 68 64 63 22 340 121 128 118 75 65 35 354 321 315 87 95 120 85 108 82 69 69 59 51 44 27 17 33 37 46 94 108 118 111 108 108 117 141 153 158 155 159 157 159 152 152 153 149 150 147 149 150 164 153 145 120 129 157 158 136 136 133 128 124 116 105 99 96 90 81 82 81 76 72 68 63 57 52 47 43 39 35 32 32
281 148 328 268 329 216 239 124 109 84 84 56 113 114 115 154 120 323 10 110 60 100 61 28 315 35 316 114 107 43 62 76 88 65 70 67 64 66 47 26 14 35 45 38 119 111 113 112 99 95 118 152 161 158 162 165 158 159 159 157 153 157 152 149 150 161 161 125 112 97 118 120 130 145 142 134 127 117 106 101 99 94 87 85 82 78 75 71 66 64 57 52 48 45 39 34 34
296 172 125 27 253 208 241 100 105 132 108 104 69 63 72 49 143 155 15 80 115 84 110 58 333 18 322 59 70 105 60 57 52 44 21 103 71 83 82 39 38 19 50 4 67 126 126 130 112 92 85 98 139 157 158 170 161 162 157 161 155 157 156 148 153 160 153 129 111 107 119 132 157 127 92 106 121 114 104 101 103 98 94 87 83 81 78 72 71 69 65 58 53 50 43 39 36
315 26 20 275 292 59 1 88 94 87 111 121 106 114 323 125 259 217 176 231 112 136 77 18 70 350 303 134 125 95 62 37 46 34 6 63 93 67 89 67 49 36 21 27 359 73 129 132 137 106 89 84 72 139 152 168 172 164 162 159 164 152 154 157 152 158 138 109 107 110 123 135 134 120 130 121 122 112 111 108 105 101 97 93 88 87 83 80 77 74 72 66 60 54 49 44 42
329 12 321 305 319 26 347 3 100 106 157 156 129 69 255 168 228 24 47 337 105 245 67 43 278 217 312 51 142 75 46 20 19 14 24 4 93 126 98 78 62 47 30 351 40 44 67 148 139 147 124 88 86 101 147 149 175 174 161 159 182 154 159 158 150 152 131 119 121 114 121 124 129 138 102 62 42 116 113 112 111 106 102 100 98 92 90 88 84 82 76 72 67 63 58 51 46
353 18 337 315 258 89 334 85 129 150 102 85 78 134 170 301 61 14 336 267 46 64 196 52 298 45 288 112 126 53 50 7 355 22 9 21 93 77 90 88 66 66 25 5 54 54 10 14 144 149 154 176 183 126 131 149 174 167 176 166 167 162 165 159 155 153 130 111 120 117 107 122 125 117 100 93 26 99 116 114 112 112 110 106 101 97 95 89 83 80 77 74 72 68 66 61 52
356 351 301 285 69 17 43 56 138 181 121 128 128 168 151 66 47 23 341 332 87 81 138 119 52 33 5 358 114 3 351 341 334 346 276 39 67 82 99 107 105 101 66 50 16 43 29 5 2 134 159 170 189 185 181 159 172 173 167 192 165 170 168 162 157 147 112 112 120 120 117 126 129 127 126 127 93 81 137 123 123 121 117 109 102 96 95 93 83 74 73 73 73 71 68 67 62
357 356 271 284 170 163 315 162 14 14 111 95 15 63 192 107 116 274 50 36 311 336 47 186 341 30 18 68 70 8 5 337 309 193 171 115 115 140 147 129 111 94 94 122 90 26 7 10 342 19 160 176 188 195 188 164 167 166 174 183 165 155 216 156 153 136 124 127 137 139 134 131 135 139 138 127 122 92 312 121 137 129 116 114 108 101 98 93 80 70 69 72 79 76 72 69 64
322 156 2 234 160 125 177 148 133 55 134 100 184 179 259 134 188 73 116 321 287 173 163 46 80 46 67 83 96 74 39 14 348 39 15 88 136 173 119 113 120 106 84 47 52 61 28 350 349 325 304 305 179 190 198 153 161 160 172 179 169 157 180 141 125 120 126 129 141 155 147 145 144 144 151 147 149 146 187 214 148 127 121 120 120 107 103 97 89 80 74 75 88 97 87 80 68
287 228 221 293 69 65 324 34 72 174 115 161 115 9 359 115 168 122 220 220 228 261 193 91 71 71 94 102 91 67 58 41 25 52 32 25 4 72 58 31 55 62 51 69 52 41 56 172 332 323 334 322 316 216 176 122 144 163 164 163 167 175 167 150 146 154 156 143 141 152 172 171 157 152 159 148 163 162 174 187 152 133 127 133 128 118 115 111 115 115 95 98 99 133 137 102 85
329 307 335 78 27 92 24 56 43 11 95 93 106 61 335 52 38 60 341 295 184 218 222 111 97 105 96 84 58 55 55 49 39 43 48 30 21 37 38 42 38 33 30 11 39 37 6 360 11 315 325 340 336 315 77 107 151 170 181 169 166 169 186 178 173 172 177 155 165 173 212 223 151 154 160 166 170 170 158 153 126 136 142 138 130 119 123 137 151 147 128 88 318 110 224 271 127
37 63 17 52 85 87 56 47 88 46 18 123 116 98 46 359 20 78 292 297 329 322 6 113 117 122 79 62 58 51 51 54 45 43 48 37 33 25 36 29 36 36 17 2 18 38 13 6 350 334 340 325 323 307 205 181 158 174 186 156 165 170 176 186 196 204 194 169 169 186 198 224 134 142 148 157 151 154 147 149 130 194 137 130 122 116 129 156 178 155 137 112 344 280 21 13 21
3 355 26 70 9 93 51 75 74 61 18 29 4 78 280 278 74 35 355 333 269 90 56 50 76 67 76 73 57 53 54 55 50 44 46 39 32 27 26 48 31 32 359 360 11 29 21 359 346 334 329 297 312 305 287 211 226 168 175 151 152 160 166 174 195 172 206 130 148 195 329 29 103 113 139 154 159 161 151 146 131 138 141 129 131 131 140 162 213 181 115 147 79 41 27 20 11
335 45 122 82 321 70 97 77 63 81 10 39 315 225 239 44 19 225 237 229 267 94 68 70 81 79 71 63 75 63 63 58 52 43 48 45 33 27 13 25 36 30 2 18 357 8 22 353 341 317 314 296 243 283 287 296 45 10 116 126 127 124 99 34 30 87 59 350 39 9 4 17 50 111 151 167 173 178 156 164 147 162 156 150 151 144 167 181 227 204 115 98 75 66 42 48 30
325 83 60 45 59 30 120 121 98 143 154 230 228 254 17 171 291 258 210 224 102 76 93 79 86 71 81 74 63 69 61 58 53 48 47 42 40 39 19 22 17 30 1 11 5 7 6 342 323 304 288 296 244 247 299 323 111 26 40 42 97 104 116 134 106 338 80 1 5 45 149 44 30 14 307 176 158 206 146 137 143 135 120 124 173 169 186 189 174 85 85 97 94 110 102 122 88
221 275 148 113 73 339 106 98 142 168 240 224 236 91 275 299 279 188 206 74 109 99 94 99 84 83 77 76 68 76 69 59 67 69 52 55 44 60 26 17 21 28 11 13 11 3 354 333 307 289 263 265 257 205 266 266 214 80 65 51 41 46 70 59 51 48 43 46 36 31 357 99 166 244 239 130 70 94 204 107 105 100 98 85 237 187 130 119 100 112 122 112 132 143 129 101 131
233 273 46 91 345 236 151 135 179 182 227 250 294 264 246 227 243 104 113 118 109 113 109 90 98 93 79 78 82 76 65 58 48 65 79 54 51 64 35 29 15 27 19 14 7 4 344 333 308 308 280 264 229 174 221 21 47 58 57 59 54 51 62 58 62 54 45 37 33 23 19 29 26 43 31 51 97 86 86 88 85 79 65 45 38 41 65 95 88 95 93 100 119 96 83 37 7
359 45 280 19 207 194 183 191 203 201 219 197 222 239 249 246 119 231 122 120 114 117 99 111 107 112 97 90 83 73 72 57 55 45 48 67 41 49 36 25 10 27 18 12 5 350 337 330 334 344 332 348 338 63 46 63 52 59 61 64 62 61 59 59 58 59 49 41 33 26 30 32 37 44 42 16 87 80 73 71 70 65 66 38 52 51 12 58 70 58 42 38 38 61 88 56 21
256 353 342 303 288 299 196 210 216 206 208 179 204 250 255 83 132 238 72 117 128 114 114 125 138 104 109 105 70 74 74 70 50 34 48 42 39 42 43 24 14 18 17 9 1 346 327 343 349 352 348 12 60 62 57 63 60 57 59 63 57 54 59 64 61 59 49 39 24 28 37 41 45 42 58 56 33 53 70 72 69 62 51 18 21 51 47 62 61 60 56 45 28 13 64 83 45
329 16 299 272 254 235 246 230 235 202 216 206 224 251 258 179 94 249 136 137 144 128 135 146 135 131 114 107 102 74 80 63 56 49 42 38 34 26 42 25 12 11 18 6 356 332 349 1 0 6 0 21 62 60 63 61 61 54 56 62 56 48 49 60 61 59 54 40 31 32 29 51 47 46 43 44 60 23 59 52 62 61 47 23 29 42 56 80 82 77 79 67 12 11 35 50 39
356 314 311 293 296 266 204 209 206 178 254 187 158 265 261 183 219 109 134 146 159 141 146 148 131 122 115 107 107 92 81 77 61 59 51 47 48 32 38 33 14 7 20 3 351 355 9 2 14 11 17 37 55 54 61 62 62 59 56 58 57 53 55 57 57 54 54 45 37 31 33 38 54 55 54 52 50 54 49 43 44 36 27 23 18 3 40 51 47 33 15 8 28 39 29 17 13
302 255 227 297 274 256 232 174 137 149 148 163 111 323 277 181 125 137 133 160 161 149 155 154 140 134 135 126 112 96 77 75 69 65 59 56 59 40 47 33 25 24 8 357 355 13 9 9 21 25 25 53 60 52 61 66 62 57 56 55 50 52 51 54 52 50 44 46 39 37 37 32 32 63 66 65 62 65 64 52 45 39 30 32 30 19 49 53 42 30 7 22 38 38 34 18 14
236 308 149 239 337 250 45 105 158 160 130 162 153 230 310 112 124 143 169 157 177 170 165 160 145 141 132 124 118 113 99 89 87 76 74 67 62 71 51 42 37 29 12 7 12 12 22 26 30 42 35 46 66 60 59 62 63 63 66 59 57 57 58 55 51 47 43 40 39 41 36 30 33 28 52 63 62 59 62 61 47 45 37 44 44 28 44 57 59 40 17 19 25 41 32 21 9
218 304 259 218 183 289 174 116 166 165 222 230 161 245 253 160 163 159 178 167 191 193 157 154 155 148 148 149 131 118 116 108 92 76 64 70 60 70 59 49 44 34 23 17 17 17 34 34 43 50 54 49 66 63 65 63 69 71 69 66 66 62 63 60 58 55 52 49 45 45 34 33 35 36 38 39 55 53 57 61 58 58 53 54 52 41 38 44 62 54 32 32 27 25 27 13 6
206 178 277 297 212 196 130 203 164 308 122 189 178 259 23 183 160 181 168 181 200 197 164 160 155 151 146 140 130 125 126 118 95 76 57 65 57 62 60 56 45 41 30 22 26 29 46 49 46 55 50 69 72 80 82 75 75 73 73 73 69 66 63 61 60 61 55 50 48 49 39 38 39 44 44 44 56 53 50 49 38 35 28 39 41 35 37 36 33 60 55 43 37 26 17 7 355
249 170 218 233 232 274 261 19 292 213 190 173 231 250 240 161 176 173 185 196 186 209 175 158 152 152 140 121 132 140 127 113 91 73 65 61 61 60 71 66 50 47 40 41 40 34 54 68 60 61 63 55 73 78 77 79 76 77 74 70 69 66 62 58 53 55 54 48 44 44 39 38 36 44 48 48 56 56 55 51 46 40 38 39 39 35 28 20 35 45 67 57 46 30 14 2 347
233 140 202 261 262 224 226 205 169 195 176 274 226 212 244 251 182 185 191 196 197 199 195 155 153 150 136 146 135 125 116 102 91 83 77 72 58 67 70 66 55 54 49 52 43 46 57 79 83 74 72 82 85 84 87 85 84 82 78 72 68 66 60 56 54 55 50 51 48 43 42 41 33 37 43 45 48 50 54 54 51 43 42 42 44 38 29 24 19 29 54 52 48 37 14 353 342
288 328 348 344 328 316 306 33 159 172 179 218 227 243 265 273 276 169 188 199 195 210 173 136 151 144 141 136 132 131 115 96 94 97 91 90 88 74 80 82 78 61 74 62 46 54 65 71 80 83 82 80 76 79 80 87 84 76 80 74 67 60 59 58 54 55 53 51 44 47 47 46 43 42 40 48 53 48 50 49 53 48 45 48 49 45 35 28 25 19 36 55 47 22 18 8 359
296 34 248 268 289 289 295 296 137 145 36 246 245 263 259 264 255 201 187 169 212 210 151 154 154 141 144 144 142 129 116 116 125 128 109 110 104 98 88 101 86 78 75 62 57 55 70 78 74 71 74 77 84 84 73 78 85 86 74 70 76 65 65 63 61 54 54 52 50 48 46 46 44 46 44 49 53 54 54 53 53 50 47 47 48 46 38 35 32 33 20 43 57 35 25 14 4
269 291 309 293 273 272 276 283 170 63 138 258 322 292 274 265 261 236 157 158 200 203 172 172 157 142 140 146 134 136 108 130 149 126 128 105 109 109 98 70 88 82 68 67 57 52 60 62 65 69 64 61 62 69 81 73 62 72 89 81 84 71 68 65 65 58 56 54 51 50 49 47 47 48 46 50 53 53 55 52 50 49 45 45 47 43 40 37 33 31 27 17 29 55 44 21 10
322 291 279 271 238 256 260 260 112 134 201 260 262 279 286 291 283 271 163 182 190 181 159 171 157 145 144 145 139 119 131 150 151 121 120 111 105 102 96 93 81 85 84 78 69 70 64 67 65 65 61 68 71 78 85 86 85 84 88 93 91 90 69 73 75 69 62 60 52 48 47 47 48 49 46 47 52 49 50 51 45 44 47 45 47 42 37 38 31 31 29 32 10 26 50 26 27
244 250 234 234 243 256 285 52 204 122 165 288 312 288 272 264 251 250 140 146 86 63 64 49 70 140 156 155 147 147 147 144 148 153 137 134 126 110 101 94 100 98 98 95 89 87 83 74 78 75 72 69 75 76 87 87 89 92 86 92 88 88 93 80 75 63 59 57 51 47 45 45 46 50 44 45 48 47 46 50 48 45 42 41 51 53 43 38 29 28 26 29 28 39 25 17 25
219 211 235 244 212 228 203 247 192 180 220 205 267 284 273 251 243 126 34 74 103 95 78 78 43 58 74 74 91 135 150 150 134 128 126 132 120 111 108 115 106 92 82 81 95 97 99 93 93 92 89 90 89 89 92 100 101 95 101 96 90 90 72 67 68 59 53 56 58 46 41 40 43 46 43 45 48 49 46 46 49 49 49 41 43 52 50 42 35 30 29 33 33 42 34 24 14
247 220 204 218 255 274 313 344 14 7 318 157 162 332 290 134 175 171 152 140 152 159 150 177 167 137 142 142 137 80 83 121 150 150 146 131 113 108 115 117 104 98 85 44 87 104 104 103 103 105 108 109 112 113 112 109 108 111 101 101 92 81 81 64 66 77 64 57 61 54 49 46 46 48 44 45 46 49 51 49 51 53 51 47 44 49 49 43 35 32 23 34 31 24 45 36 28
245 263 350 199 199 60 21 315 46 309 251 293 79 154 264 356 4 165 165 179 182 135 200 185 174 173 178 182 156 148 147 127 106 109 119 121 132 132 123 115 113 100 89 82 73 85 87 88 88 86 90 90 101 117 120 109 88 82 85 88 96 98 102 89 89 82 87 81 76 66 60 50 49 53 48 47 47 48 53 52 54 55 56 55 49 51 48 43 38 35 24 31 33 29 29 45 33
246 313 11 64 74 131 205 224 203 250 343 268 172 175 250 282 266 237 173 171 181 191 207 199 179 177 182 183 157 161 162 153 143 145 151 142 145 144 136 126 113 108 101 85 85 83 88 92 97 96 85 77 68 78 79 84 94 94 95 93 94 102 98 108 107 99 95 99 87 81 72 60 51 52 55 49 47 47 49 51 50 52 54 50 52 55 54 46 46 39 37 31 32 38 39 45 31
171 246 111 79 107 187 259 194 245 228 334 276 200 171 316 250 256 209 152 168 200 216 200 201 182 180 175 173 159 159 155 154 156 151 147 151 149 131 129 113 112 108 101 98 99 97 94 94 96 92 88 84 78 82 86 85 91 99 105 110 104 99 107 108 110 105 100 99 94 87 84 78 65 54 53 56 51 51 50 53 51 53 52 47 45 48 50 50 48 47 39 34 31 27 37 40 43
181 127 62 89 87 78 209 215 200 275 240 238 193 180 210 277 233 126 175 215 215 209 199 188 179 172 174 164 157 151 139 145 146 146 144 135 121 123 121 114 95 103 111 108 102 101 101 103 100 97 91 90 95 93 96 95 99 107 110 116 119 119 118 113 104 104 97 89 91 81 75 76 69 60 48 45 51 49 53 53 53 51 51 49 45 42 42 45 41 41 43 44 37 36 25 38 38
150 118 95 65 74 185 22 6 108 343 249 236 209 207 175 287 252 186 171 218 184 135 123 149 158 163 166 159 153 151 147 148 147 138 131 121 116 118 124 120 118 107 114 110 107 112 116 111 111 103 103 100 100 102 102 104 106 112 119 124 124 124 121 120 115 105 105 96 95 93 83 77 72 65 52 43 45 44 46 49 52 51 47 46 45 38 32 34 40 36 36 41 39 38 24 36 34
131 134 126 113 335 43 4 255 253 205 261 200 199 212 182 210 285 333 128 89 126 150 165 164 167 171 166 160 157 152 153 152 139 137 136 135 131 137 126 122 132 139 121 115 115 116 116 118 116 109 103 103 101 104 103 104 107 108 108 112 113 113 113 113 114 114 114 111 103 98 87 77 66 64 55 52 43 39 45 45 44 48 44 39 39 36 31 24 29 41 32 39 38 29 25 29 37
145 133 140 133 198 87 241 149 209 212 240 275 349 313 194 229 244 142 179 128 128 138 160 167 167 164 162 159 156 153 153 152 150 149 148 151 154 157 143 144 141 149 144 135 133 126 122 122 120 113 111 108 106 106 108 107 106 105 106 103 100 101 103 106 108 103 99 99 97 91 89 83 69 62 48 54 43 44 44 46 43 44 44 39 36 33 27 26 20 41 40 32 38 29 16 15 33
172 177 172 153 174 192 227 195 225 251 277 292 55 312 297 316 252 227 168 125 116 98 137 152 160 161 159 157 153 150 154 158 159 156 155 160 160 160 151 149 152 148 144 141 137 132 128 122 119 116 119 116 115 109 108 106 101 102 100 100 100 103 101 98 95 100 96 94 97 97 96 95 87 84 75 61 58 61 54 52 52 49 46 44 39 31 28 25 19 36 46 35 35 31 10 7 11
200 190 177 188 177 176 214 182 207 210 176 197 301 86 233 128 241 25 95 80 61 60 92 132 131 133 137 137 137 142 150 160 160 160 161 162 161 160 153 151 148 146 143 139 138 137 130 125 125 124 125 124 117 115 109 107 104 100 99 98 98 96 100 98 93 95 100 98 92 96 87 86 93 90 87 85 64 66 73 65 55 51 42 40 33 28 21 20 9 24 44 48 27 32 1 357 356
202 203 215 231 230 100 193 189 59 102 110 102 236 200 201 182 89 85 90 65 52 57 98 122 128 130 133 142 157 163 164 163 162 158 159 159 157 155 146 146 148 146 144 143 144 143 136 135 132 131 132 129 123 117 114 112 108 99 94 96 96 98 99 99 94 86 88 92 97 101 102 98 99 96 83 84 72 63 57 71 66 56 52 45 41 33 24 18 360 32 27 49 34 9 358 5 2
201 167 216 191 50 46 342 9 358 51 11 252 153 292 299 58 19 116 135 104 124 114 134 129 136 143 148 166 169 170 173 171 169 169 168 162 157 162 157 153 150 151 149 156 157 151 145 141 139 135 130 125 122 119 115 111 109 107 105 105 106 105 106 108 111 106 103 102 101 94 99 102 94 90 93 83 76 64 57 67 73 66 53 52 48 37 27 13 5 39 26 61 47 356 1 353 354
109 207 210 57 33 80 148 223 60 189 224 257 151 194 232 143 256 148 129 169 186 185 172 161 143 152 168 176 175 176 180 178 170 165 166 168 165 165 160 158 155 157 157 156 154 151 147 148 146 139 136 131 124 119 117 119 118 116 114 106 101 106 112 111 111 114 110 109 110 109 100 95 100 101 98 88 87 87 70 68 74 72 65 59 56 39 30 9 16 30 24 57 58 17 2 344 332
140 174 343 142 229 248 218 109 246 193 227 260 228 193 215 185 212 141 192 188 198 190 168 166 173 179 181 172 174 174 167 163 173 176 173 175 173 171 166 162 158 157 159 158 153 146 145 143 141 140 138 133 128 124 118 112 112 113 112 113 115 112 112 115 119 118 121 118 115 109 110 114 104 97 93 92 87 82 77 75 75 62 66 63 51 49 38 12 31 43 24 44 10 24 11 352 333
111 318 333 184 80 265 150 197 239 138 243 181 284 146 250 190 204 183 191 197 183 166 167 191 192 188 175 173 174 175 177 182 181 182 180 176 173 169 167 165 165 165 164 161 155 150 151 148 141 136 126 125 122 121 123 122 118 117 116 113 110 114 112 116 116 114 110 108 107 113 116 109 107 102 98 96 93 89 87 86 83 78 72 76 61 41 34 28 32 41 29 29 351 12 6 350 340
202 143 251 170 177 269 93 305 182 180 205 218 249 280 273 270 213 172 188 181 171 167 181 191 192 184 178 175 175 180 183 185 186 184 178 173 169 167 166 164 159 157 161 157 160 161 154 145 147 145 142 139 134 133 129 131 127 129 127 125 126 122 119 111 106 100 101 101 100 99 101 106 99 100 103 96 96 100 100 101 94 93 88 77 63 36 17 32 27 18 3 16 0 6 9 343 347
200 185 198 184 155 151 166 253 155 210 118 233 166 253 232 287 343 167 173 171 155 176 172 180 176 170 175 176 178 178 185 191 184 180 173 168 166 167 161 156 158 161 169 164 162 159 155 156 153 146 144 147 145 143 143 141 137 136 133 129 124 119 114 111 108 104 102 102 102 104 111 100 103 101 101 110 113 114 103 98 98 89 76 73 52 53 18 40 35 13 9 4 6 6 356 335 344